Hourly Data Report for January 31, 2019

TORONTO INTL A
ONTARIO
Current Station Operator: NAVCAN

43°40'36.000" N
79°37'50.000" W
173.40 m
6158731
71624
YYZ

Download Data

Hourly Data (January 2019)
Hourly Data Report for January 31, 2019
TIME
LST
Temp Definition
°C
Dew Point Definition
°C
Rel Hum Definition
%
Precip. Amount Definition
mm

Wind Dir Definition
10's deg

Wind Spd Definition
km/h
Visibility Definition
km
Stn Press Definition
kPa
Hmdx Definition


Wind Chill Definition


Weather Definition


00:00 -22.3 -28.3 59   25 39 12.9 99.70   -37 Blowing Snow
01:00 -22.6 -28.4 60   25 37 12.9 99.70   -37 Blowing Snow
02:00 -22.6 -28.3 61   25 41 12.9 99.71   -38 Blowing Snow
03:00 -22.4 -27.9 62   25 44 12.9 99.76   -38 Blowing Snow
04:00 -22.2 -27.6 62   25 34 16.1 99.80   -36 Blowing Snow
05:00 -21.9 -27.2 63   26 37 12.9 99.84   -36 Blowing Snow
06:00 -21.3 -26.6 63   25 37 12.9 99.92   -35 Blowing Snow
07:00 -20.9 -26.1 64   24 32 24.1 99.98   -34 Blowing Snow
08:00 -21.4 -26.5 64   25 31 24.1 100.04   -35 Blowing Snow
09:00 -20.6 -25.7 64   25 40 24.1 100.10   -35 Blowing Snow
10:00 -19.2 -24.4 64   25 35 24.1 100.20   -32 Blowing Snow
11:00 -17.3 -22.7 63   25 35 24.1 100.25   -30 Blowing Snow
12:00 -15.6 -21.4 61   24 36 24.1 100.24   -28 Blowing Snow
13:00 -14.8 -21.0 60   25 36 24.1 100.23   -27 Blowing Snow
14:00 -14.6 -21.3 57   25 41 24.1 100.20   -27 Blowing Snow
15:00 -14.8 -21.6 57   25 40 24.1 100.23   -27 Blowing Snow
16:00 -15.1 -21.8 57   25 31 24.1 100.29   -26 Blowing Snow
17:00 -15.8 -22.4 57   26 36 24.1 100.35   -28 Blowing Snow
18:00 -16.5 -23.0 58   25 27 24.1 100.43   -27 Blowing Snow
19:00 -17.1 -23.5 58   24 25 24.1 100.50   -28 Blowing Snow
20:00 -17.5 -23.8 59   24 27 24.1 100.50   -29 Blowing Snow
21:00 -17.6 -23.8 59   24 33 19.3 100.50   -30 Blowing Snow
22:00 -18.0 -23.9 61   25 37 19.3 100.50   -31 Blowing Snow
23:00 -18.7 -24.4 62   24 28 24.1 100.51   -31 Blowing Snow

Notes on Data Quality.

Legend

  • E = Estimated
  • M = Missing
  • NA = Not Available*
  • [empty] = Indicates an unobserved value
Date modified: